Location: Taylor Dark Sky Site
(39.1017°N, 87.9564°W)
Time: 13:47:11
(UTC-06:00)

Amateur Radio Satellites - All Passes

Search period start: 21 January 2017 13:17
Search period end: 22 January 2017 13:17
Location: Taylor Dark Sky Site, 39.1017°N, 87.9564°W

Satellite Date Start Highest point End Downlink Frequencies (MHz)
Time Altitude Azimuth
YUBILEINY 21 Jan 13:17:28 13:25:45 48° 88° (E) 13:34:04 435.215
SPROUT 21 Jan 13:22:22 13:25:17 18° 293° (WNW) 13:28:12 437.525
50 SAT 21 Jan 13:23:42 13:25:05 12° 294° (WNW) 13:26:27 437.505
UKube-1 21 Jan 13:26:21 13:30:17 35° 290° (WNW) 13:34:11 .
DX 1 21 Jan 13:29:49 13:33:20 24° 292° (WNW) 13:36:50 434.975-435.025
ITAMSAT 1 21 Jan 13:33:01 13:37:40 35° 69° (ENE) 13:42:20 435.822/435.867
AIST 1 21 Jan 13:43:18 13:47:40 74° 278° (W) 13:52:02
ITUPSAT 1 21 Jan 13:48:19 13:52:03 22° 95° (E) 13:55:46 437.325
Cosmos 2504 21 Jan 13:50:00 13:57:58 42° 88° (E) 14:05:31 435.465 / 435.565
CUSAT 1 21 Jan 13:52:09 14:00:13 89° 81° (E) 14:07:27 437.405
AO-85 21 Jan 13:54:00 13:58:32 45° 305° (NW) 14:02:45 145.980
MOZHAYETS 4 21 Jan 14:09:54 14:10:49 10° 89° (E) 14:11:44
BEESAT 21 Jan 14:21:29 14:26:08 50° 100° (E) 14:30:47 436.000
SWISSCUBE 21 Jan 14:23:11 14:27:56 59° 101° (E) 14:32:40 437.505
JUGNU 21 Jan 14:28:04 14:29:21 11° 177° (S) 14:30:39 437.505
BEESAT 3 21 Jan 14:29:16 14:30:29 11° 108° (ESE) 14:31:43 437.485
BRITE-PL 21 Jan 14:32:48 14:35:25 13° 61° (ENE) 14:38:01 437.365/2234.400
TISAT 1 21 Jan 14:46:37 14:49:00 15° 295° (WNW) 14:51:24 437.305
AO-7 21 Jan 14:49:40 14:58:00 74° 254° (WSW) 15:06:25 29.400- 29.500
DANDE 21 Jan 14:52:29 15:00:29 88° 262° (W) 15:08:51 436.750
SO-50 21 Jan 15:03:36 15:06:48 19° 45° (NE) 15:09:57 436.795
ITAMSAT 1 21 Jan 15:12:52 15:17:09 26° 264° (W) 15:21:28 435.822/435.867
Cosmos 2491 21 Jan 15:13:05 15:17:36 15° 283° (WNW) 15:22:08 435.465 / 435.565
YUBILEINY 21 Jan 15:14:45 15:22:40 36° 288° (WNW) 15:30:40 435.215
BEESAT 2 21 Jan 15:15:16 15:17:44 16° 110° (ESE) 15:20:13 435.950
ITUPSAT 1 21 Jan 15:25:32 15:29:56 37° 290° (WNW) 15:34:20 437.325
CUSAT 1 21 Jan 15:36:10 15:40:57 18° 280° (W) 15:45:31 437.405
AUBIESAT-1 21 Jan 15:36:17 15:38:32 17° 100° (E) 15:40:46 437.475
Cosmos 2504 21 Jan 15:43:18 15:51:17 40° 285° (WNW) 15:58:53 435.465 / 435.565
NOAA 15 21 Jan 15:43:46 15:45:02 11° 58° (ENE) 15:46:19 137.62
MOZHAYETS 4 21 Jan 15:43:47 15:48:25 70° 285° (WNW) 15:53:01
O/OREOS (USA 219) 21 Jan 15:49:47 15:54:19 87° 69° (ENE) 15:58:51 437.305
BEESAT 21 Jan 16:00:25 16:03:30 17° 296° (WNW) 16:06:35 436.000
SWISSCUBE 21 Jan 16:02:32 16:05:12 15° 297° (WNW) 16:07:54 437.505
BEESAT 3 21 Jan 16:03:47 16:07:36 54° 305° (NW) 16:11:28 437.485
GOMX 1 21 Jan 16:05:58 16:10:54 38° 71° (ENE) 16:15:39 467.674
BRITE-PL 21 Jan 16:07:23 16:13:06 88° 257° (WSW) 16:18:45 437.365/2234.400
KKS-1 21 Jan 16:14:36 16:19:03 76° 103° (ESE) 16:23:27 437.445
HORYU 2 21 Jan 16:20:58 16:25:17 59° 74° (ENE) 16:29:38 437.375
LilacSat-2 21 Jan 16:28:36 16:31:26 21° 69° (ENE) 16:34:17 437.200
CUTE-I 21 Jan 16:31:39 16:36:11 29° 67° (ENE) 16:40:43 437.470
CUBESAT XI-V 21 Jan 16:32:48 16:37:26 57° 100° (E) 16:42:00 437.345
M-CUBED/EXP-1 PRIME 21 Jan 16:34:17 16:37:31 49° 291° (WNW) 16:40:40 437.505
DANDE 21 Jan 16:37:16 16:42:18 18° 278° (W) 16:47:27 436.750
DOVE 4 21 Jan 16:39:19 16:43:40 31° 71° (ENE) 16:47:48 437.250
SO-50 21 Jan 16:43:11 16:47:34 53° 243° (WSW) 16:51:54 436.795
AO-7 21 Jan 16:48:54 16:52:01 12° 272° (W) 16:55:10 29.400- 29.500
BEESAT 2 21 Jan 16:51:27 16:55:10 39° 306° (NW) 16:58:57 435.950
HO-68 21 Jan 17:03:38 17:08:16 19° 56° (NE) 17:12:54 435.675
STARS 21 Jan 17:04:20 17:08:40 67° 286° (WNW) 17:13:00 437.465
AUBIESAT-1 21 Jan 17:10:20 17:12:58 22° 295° (WNW) 17:15:32 437.475
Cubesat XI-IV 21 Jan 17:14:21 17:19:38 72° 74° (ENE) 17:24:56 437.490
NOAA 15 21 Jan 17:18:39 17:23:56 84° 75° (ENE) 17:29:17 137.62
NOAA 18 21 Jan 17:29:06 17:34:28 56° 71° (ENE) 17:39:50 137.9125
GOMX 1 21 Jan 17:44:33 17:48:59 26° 265° (W) 17:53:17 467.674
SRMSAT 21 Jan 17:47:37 17:49:19 11° 182° (S) 17:51:01 437.500
CANX-2 21 Jan 17:50:02 17:53:22 23° 69° (ENE) 17:56:44 2200.000
BRITE-PL 21 Jan 17:50:36 17:52:10 11° 272° (W) 17:53:43 437.365/2234.400
KKS-1 21 Jan 17:54:23 17:54:57 10° 299° (WNW) 17:55:31 437.445
CINEMA 3 21 Jan 17:58:34 18:02:47 45° 73° (ENE) 18:06:51 145.822/145.860
SEEDS 21 Jan 17:59:03 18:01:43 17° 66° (ENE) 18:04:23 437.485
HORYU 2 21 Jan 18:00:42 18:02:12 11° 269° (W) 18:03:41 437.375
Cosmos 2499 21 Jan 18:01:01 18:07:25 25° 84° (E) 18:13:29 435.465 / 435.565
LilacSat-2 21 Jan 18:02:29 18:05:35 24° 265° (W) 18:08:42 437.200
COMPASS 1 21 Jan 18:03:08 18:04:40 12° 64° (ENE) 18:06:11 437.405
GONETS M04 21 Jan 18:07:22 18:13:36 23° 80° (E) 18:19:52
CUTE-I 21 Jan 18:11:21 18:16:06 33° 263° (W) 18:20:53 437.470
CUBESAT XI-V 21 Jan 18:11:45 18:14:18 15° 296° (WNW) 18:16:49 437.345
AAUSAT CUBESAT 2 21 Jan 18:13:09 18:14:34 12° 64° (ENE) 18:15:59 437.432
DOVE 4 21 Jan 18:17:05 18:21:17 27° 264° (W) 18:25:19 437.250
CUBEBUG 2 21 Jan 18:44:38 18:48:19 31° 71° (ENE) 18:52:00 437.445
HO-68 21 Jan 18:47:52 18:55:05 86° 254° (WSW) 19:02:20 435.675
STRAND 1 21 Jan 18:49:49 18:54:42 42° 99° (E) 18:59:34 437.568
CUTE 1.7 + AOD 2 21 Jan 18:55:08 18:59:22 75° 258° (WSW) 19:03:39 437.475
Cubesat XI-IV 21 Jan 18:57:51 19:00:12 13° 270° (W) 19:02:34 437.490
AIST 2 21 Jan 19:00:42 19:04:48 88° 299° (WNW) 19:09:00 435.215
FUNcube-1 21 Jan 19:02:51 19:05:33 17° 67° (ENE) 19:08:16 145.935
NOAA 15 21 Jan 19:03:12 19:04:20 11° 271° (W) 19:05:27 137.62
UWE-3 21 Jan 19:09:56 19:13:45 37° 72° (ENE) 19:17:36 435.000/436.395/437.385
NOAA 18 21 Jan 19:11:46 19:15:27 18° 267° (W) 19:19:08 137.9125
CANX-2 21 Jan 19:25:23 19:29:03 28° 264° (W) 19:32:46 2200.000
ZACube-1 21 Jan 19:25:36 19:29:18 33° 71° (ENE) 19:33:04 437.345
SEEDS 21 Jan 19:33:06 19:37:03 40° 262° (W) 19:41:05 437.485
COMPASS 1 21 Jan 19:35:33 19:39:40 58° 260° (W) 19:43:50 437.405
CINEMA 3 21 Jan 19:37:40 19:40:06 14° 267° (W) 19:42:29 145.822/145.860
AAUSAT CUBESAT 2 21 Jan 19:45:23 19:49:29 59° 260° (W) 19:53:39 437.432
Cosmos 2499 21 Jan 19:51:37 19:59:58 63° 280° (W) 20:07:45 435.465 / 435.565
Oscar 11 21 Jan 19:58:38 20:02:56 71° 75° (ENE) 20:07:15 145.826/435.025
GONETS M04 21 Jan 20:00:49 20:09:29 72° 279° (W) 20:18:16
CUBEBUG 2 21 Jan 20:22:03 20:25:00 19° 266° (W) 20:27:57 437.445
STRAND 1 21 Jan 20:29:40 20:33:35 23° 295° (WNW) 20:37:30 437.568
FUNcube-1 21 Jan 20:37:42 20:41:30 36° 262° (W) 20:45:21 145.935
HO-68 21 Jan 20:40:24 20:43:42 13° 271° (W) 20:47:00 435.675
AIST 2 21 Jan 20:42:41 20:43:55 11° 319° (NW) 20:45:11 435.215
UWE-3 21 Jan 20:47:53 20:50:22 16° 267° (W) 20:52:53 435.000/436.395/437.385
AO-85 21 Jan 20:48:00 20:49:21 11° 42° (NE) 20:50:40 145.980
DELFI C3 21 Jan 20:49:36 20:53:36 89° 111° (ESE) 20:57:39 145.870
ANTELSAT 21 Jan 20:52:57 20:55:03 13° 92° (E) 20:57:10 437.575/2403.000
HUMSAT D 21 Jan 20:59:02 21:03:03 59° 75° (ENE) 21:07:09 437.325/437.525
ZACube-1 21 Jan 21:02:53 21:05:41 18° 267° (W) 21:08:31 437.345
PRISM 21 Jan 21:08:26 21:12:32 64° 101° (ESE) 21:16:34 437.425
ISS 21 Jan 21:25:23 21:28:39 88° 139° (SE) 21:31:55 145.825
CUBEBUG 1 21 Jan 21:30:45 21:31:13 10° 62° (ENE) 21:31:43 437.445
JAS-2 21 Jan 21:33:00 21:38:19 21° 91° (E) 21:43:48 435.910
AISAT 21 Jan 21:50:13 21:51:37 11° 62° (ENE) 21:53:01 437.250
Cosmos 2499 21 Jan 21:53:53 21:54:37 10° 300° (WNW) 21:55:20 435.465 / 435.565
UNISAT 6 21 Jan 21:59:03 22:03:31 73° 101° (E) 22:08:04 437.425
BY70-1 21 Jan 22:03:19 22:06:18 85° 83° (E) 22:09:34 436.1900
GONETS M04 21 Jan 22:04:17 22:08:02 13° 301° (WNW) 22:11:50
TIGRISAT 21 Jan 22:11:55 22:16:23 87° 284° (WNW) 22:20:56 435.000
ESTCUBE 1 21 Jan 22:15:26 22:19:52 56° 74° (ENE) 22:24:20 437.505/2401.250
VELOX 1 21 Jan 22:21:07 22:24:37 23° 68° (ENE) 22:28:07 145.980
50 SAT 21 Jan 22:23:38 22:25:35 14° 67° (ENE) 22:27:33 437.505
AO-85 21 Jan 22:26:20 22:30:14 73° 240° (WSW) 22:34:08 145.980
ANTELSAT 21 Jan 22:27:40 22:32:02 55° 286° (WNW) 22:36:28 437.575/2403.000
RS-15 21 Jan 22:34:53 22:46:16 59° 112° (ESE) 22:58:10 29.354- 29.394
PCSat 21 Jan 22:37:46 22:40:00 13° 102° (ESE) 22:42:12 145.827
SPROUT 21 Jan 22:38:16 22:41:42 24° 69° (ENE) 22:45:09 437.525
UKube-1 21 Jan 22:45:17 22:47:41 15° 64° (ENE) 22:50:05 .
PRISM 21 Jan 22:46:28 22:47:15 10° 297° (WNW) 22:48:01 437.425
DX 1 21 Jan 22:48:14 22:51:34 22° 67° (ENE) 22:54:55 434.975-435.025
CUBEBUG 1 21 Jan 23:02:27 23:06:52 76° 258° (WSW) 23:11:16 437.445
ISS 21 Jan 23:03:18 23:05:30 17° 339° (NNW) 23:07:42 145.825
QB50P1 21 Jan 23:07:54 23:11:48 36° 98° (E) 23:15:44 145.935-145.965
POLYITAN 1 21 Jan 23:12:29 23:16:31 42° 99° (E) 23:20:32 437.675
QB50P2 21 Jan 23:13:45 23:17:51 46° 99° (E) 23:21:56 145.880/145.840
JAS-2 21 Jan 23:16:27 23:23:45 77° 286° (WNW) 23:31:33 435.910
AISAT 21 Jan 23:23:03 23:27:29 69° 258° (WSW) 23:31:55 437.250
YUBILEINY 21 Jan 23:29:46 23:36:14 22° 66° (ENE) 23:42:37 435.215
POPSAT HIP 1 21 Jan 23:34:45 23:38:59 76° 103° (ESE) 23:43:13 437.405
UNISAT 6 21 Jan 23:38:30 23:39:38 11° 297° (WNW) 23:40:46 437.425
DUCHIFAT 1 21 Jan 23:43:32 23:47:45 82° 102° (ESE) 23:51:57 145.980
Cosmos 2504 21 Jan 23:48:13 23:49:21 10° 59° (ENE) 23:50:29 435.465 / 435.565
PHONESAT 2.4 21 Jan 23:48:48 23:49:01 10° 149° (SSE) 23:49:15 2401.200-2431.200
NANOSAT C BR1 21 Jan 23:49:58 23:54:11 76° 284° (WNW) 23:58:23 145.865
AIST 1 21 Jan 23:52:03 23:55:27 23° 74° (ENE) 23:58:49
ESTCUBE 1 21 Jan 23:54:54 23:57:00 13° 269° (W) 23:59:05 437.505/2401.250
50 SAT 21 Jan 23:55:16 23:58:29 32° 262° (W) 00:01:46 437.505
VELOX 1 21 Jan 23:56:58 00:00:54 31° 263° (W) 00:04:51 145.980
TISAT 1 22 Jan 00:00:20 00:03:54 28° 70° (ENE) 00:07:29 437.305
BUGSAT 1 22 Jan 00:11:38 00:15:37 58° 101° (ESE) 00:19:37 437.445
SPROUT 22 Jan 00:13:56 00:17:30 26° 264° (W) 00:21:06 437.525
PCSat 22 Jan 00:17:13 00:22:37 79° 299° (WNW) 00:28:05 145.827
UKube-1 22 Jan 00:19:06 00:23:17 49° 260° (W) 00:27:30 .
Cosmos 2491 22 Jan 00:19:12 00:25:25 23° 80° (E) 00:31:40 435.465 / 435.565
BEESAT 3 22 Jan 00:21:31 00:25:28 55° 56° (NE) 00:29:23 437.485
DX 1 22 Jan 00:23:39 00:27:33 32° 262° (W) 00:31:29 434.975-435.025
QB50P1 22 Jan 00:44:26 00:47:17 18° 293° (WNW) 00:50:09 145.935-145.965
RS-15 22 Jan 00:47:49 00:59:09 46° 315° (NW) 01:10:57 29.354- 29.394
POLYITAN 1 22 Jan 00:49:21 00:51:58 16° 294° (WNW) 00:54:34 437.675
QB50P2 22 Jan 00:50:54 00:53:14 15° 295° (WNW) 00:55:34 145.880/145.840
ITUPSAT 1 22 Jan 00:54:06 00:57:51 23° 66° (ENE) 01:01:35 437.325
Oscar 19 22 Jan 00:59:57 01:04:57 47° 99° (E) 01:09:53 437.125/150
JAS-2 22 Jan 01:03:53 01:07:45 15° 302° (WNW) 01:11:45 435.910
BEESAT 2 22 Jan 01:09:50 01:13:55 80° 60° (ENE) 01:17:56 435.950
CUSAT 1 22 Jan 01:14:34 01:16:13 11° 76° (ENE) 01:17:57 437.405
PHONESAT 2.4 22 Jan 01:20:23 01:22:36 60° 162° (SSE) 01:24:49 2401.200-2431.200
YUBILEINY 22 Jan 01:25:09 01:33:59 78° 265° (W) 01:42:41 435.215
BEESAT 22 Jan 01:26:35 01:31:09 51° 73° (ENE) 01:35:47 436.000
Gurwin Techsat 1B 22 Jan 01:27:18 01:32:25 46° 99° (E) 01:37:30 435.225
SWISSCUBE 22 Jan 01:28:19 01:32:58 60° 73° (ENE) 01:37:40 437.505
AIST 1 22 Jan 01:29:27 01:32:58 25° 271° (W) 01:36:28
TISAT 1 22 Jan 01:36:16 01:39:30 22° 265° (W) 01:42:46 437.305
Cosmos 2504 22 Jan 01:36:55 01:44:16 71° 81° (E) 01:51:23 435.465 / 435.565
M-CUBED/EXP-1 PRIME 22 Jan 01:46:19 01:48:26 14° 61° (ENE) 01:50:30 437.505
ITAMSAT 1 22 Jan 01:48:31 01:50:54 13° 91° (E) 01:53:17 435.822/435.867
BUGSAT 1 22 Jan 01:49:21 01:50:29 11° 296° (WNW) 01:51:36 437.445
BEESAT 3 22 Jan 02:01:10 02:02:35 12° 252° (WSW) 02:03:59 437.485
PCSat 22 Jan 02:04:17 02:06:55 14° 318° (NW) 02:09:33 145.827
Cosmos 2491 22 Jan 02:12:40 02:21:19 72° 279° (W) 02:30:04 435.465 / 435.565
ISS 22 Jan 02:18:40 02:20:41 15° 20° (NNE) 02:22:41 145.825
AUBIESAT-1 22 Jan 02:20:02 02:23:28 25° 65° (ENE) 02:26:44 437.475
ITUPSAT 1 22 Jan 02:31:07 02:35:27 35° 262° (W) 02:39:50 437.325
Oscar 19 22 Jan 02:40:09 02:43:54 21° 296° (WNW) 02:47:37 437.125/150
MOZHAYETS 4 22 Jan 02:44:07 02:48:41 86° 259° (W) 02:53:18
CUSAT 1 22 Jan 02:51:26 02:56:33 89° 270° (W) 03:03:19 437.405
AO-7 22 Jan 02:52:52 03:00:39 41° 99° (E) 03:08:20 29.400- 29.500
PHONESAT 2.4 22 Jan 02:54:20 02:56:33 54° 359° (N) 02:58:45 2401.200-2431.200
BEESAT 22 Jan 03:06:23 03:09:13 16° 268° (W) 03:12:04 436.000
RS-15 22 Jan 03:07:27 03:16:06 21° 347° (NNW) 03:24:49 29.354- 29.394
Gurwin Techsat 1B 22 Jan 03:08:01 03:12:01 22° 295° (WNW) 03:16:01 435.225
SWISSCUBE 22 Jan 03:08:53 03:11:07 13° 269° (W) 03:13:22 437.505
KKS-1 22 Jan 03:11:12 03:15:34 60° 74° (ENE) 03:19:57 437.445
M-CUBED/EXP-1 PRIME 22 Jan 03:18:14 03:22:32 55° 254° (WSW) 03:26:35 437.505
AIST 2 22 Jan 03:23:03 03:27:06 41° 54° (NE) 03:31:07 435.215
YUBILEINY 22 Jan 03:25:33 03:29:09 13° 285° (WNW) 03:32:47 435.215
ITAMSAT 1 22 Jan 03:25:38 03:30:50 70° 286° (WNW) 03:36:01 435.822/435.867
Cosmos 2504 22 Jan 03:32:11 03:36:43 18° 280° (W) 03:41:10 435.465 / 435.565
CUBESAT XI-V 22 Jan 03:34:38 03:39:08 48° 73° (ENE) 03:43:41 437.345
AUBIESAT-1 22 Jan 03:54:08 03:57:45 27° 258° (WSW) 04:01:13 437.475
ISS 22 Jan 03:54:22 03:57:37 76° 38° (NE) 04:00:51 145.825
STARS 22 Jan 03:59:22 04:03:44 89° 238° (WSW) 04:08:08 437.465
DANDE 22 Jan 04:00:33 04:04:24 68° 282° (WNW) 04:09:37 436.750
BRITE-PL 22 Jan 04:14:46 04:18:59 31° 95° (E) 04:22:54 437.365/2234.400
HORYU 2 22 Jan 04:14:55 04:16:40 12° 91° (E) 04:18:25 437.375
Cosmos 2491 22 Jan 04:16:10 04:19:53 13° 301° (WNW) 04:23:38 435.465 / 435.565
O/OREOS (USA 219) 22 Jan 04:25:18 04:26:28 11° 98° (E) 04:27:39 437.305
PHONESAT 2.4 22 Jan 04:28:17 04:30:31 72° 195° (SSW) 04:32:45 2401.200-2431.200
CUSAT 1 22 Jan 04:37:10 04:39:54 13° 303° (WNW) 04:42:54 437.405
AO-7 22 Jan 04:45:37 04:53:22 44° 297° (WNW) 05:01:06 29.400- 29.500
KKS-1 22 Jan 04:50:56 04:52:29 12° 269° (W) 04:54:01 437.445
CUTE-I 22 Jan 04:51:30 04:53:29 12° 90° (E) 04:55:28 437.470
AIST 2 22 Jan 05:02:23 05:05:15 18° 250° (WSW) 05:08:06 435.215
CUBESAT XI-V 22 Jan 05:13:53 05:16:45 16° 268° (W) 05:19:39 437.345
RS-15 22 Jan 05:25:12 05:34:54 25° 24° (NNE) 05:44:24 29.354- 29.394
Cubesat XI-IV 22 Jan 05:33:03 05:37:46 31° 97° (E) 05:42:28 437.490
ISS 22 Jan 05:33:27 05:33:38 10° 232° (SW) 05:33:49 145.825
NOAA 15 22 Jan 05:35:16 05:40:06 34° 97° (E) 05:44:52 137.62
LilacSat-2 22 Jan 05:36:04 05:39:39 35° 98° (E) 05:43:14 437.200
Cosmos 2499 22 Jan 05:44:37 05:51:15 40° 75° (ENE) 05:57:50 435.465 / 435.565
GOMX 1 22 Jan 05:47:02 05:51:23 68° 285° (WNW) 05:55:31 467.674
HORYU 2 22 Jan 05:49:09 05:53:33 58° 286° (WNW) 05:57:56 437.375
NOAA 18 22 Jan 05:52:49 05:57:17 25° 95° (E) 06:01:44 137.9125
BRITE-PL 22 Jan 05:53:28 05:57:18 24° 293° (WNW) 06:00:55 437.365/2234.400
CINEMA 3 22 Jan 05:56:28 05:57:22 11° 91° (E) 05:58:16 145.822/145.860
O/OREOS (USA 219) 22 Jan 06:00:50 06:05:16 62° 293° (WNW) 06:09:42 437.305
PHONESAT 2.4 22 Jan 06:03:04 06:04:08 12° 210° (SSW) 06:05:13 2401.200-2431.200
STRAND 1 22 Jan 06:04:29 06:09:26 54° 72° (ENE) 06:14:24 437.568
GONETS M04 22 Jan 06:12:27 06:21:07 56° 78° (ENE) 06:29:44
DOVE 4 22 Jan 06:16:17 06:20:28 88° 278° (W) 06:24:37 437.250
HO-68 22 Jan 06:18:25 06:23:16 19° 92° (E) 06:28:05 435.675
CUTE-I 22 Jan 06:28:43 06:34:04 78° 286° (WNW) 06:39:24 437.470
CUTE 1.7 + AOD 2 22 Jan 06:41:51 06:45:04 20° 94° (E) 06:48:15 437.475
SO-50 22 Jan 06:55:38 07:00:19 64° 119° (ESE) 07:04:56 436.795
CANX-2 22 Jan 07:10:44 07:14:57 51° 99° (E) 07:19:07 2200.000
LilacSat-2 22 Jan 07:11:18 07:13:38 16° 293° (WNW) 07:15:58 437.200
Cubesat XI-IV 22 Jan 07:13:06 07:17:46 32° 292° (WNW) 07:22:26 437.490
NOAA 15 22 Jan 07:15:13 07:19:43 29° 293° (WNW) 07:24:11 137.62
SEEDS 22 Jan 07:17:53 07:21:46 34° 97° (E) 07:25:38 437.485
COMPASS 1 22 Jan 07:19:52 07:23:15 23° 95° (E) 07:26:36 437.405
PCSat 22 Jan 07:25:28 07:27:08 11° 40° (NE) 07:28:48 145.827
AAUSAT CUBESAT 2 22 Jan 07:29:10 07:32:28 22° 95° (E) 07:35:44 437.432
CINEMA 3 22 Jan 07:30:40 07:34:50 58° 285° (WNW) 07:39:05 145.822/145.860
NOAA 18 22 Jan 07:32:59 07:38:01 40° 291° (WNW) 07:43:04 137.9125
Cosmos 2499 22 Jan 07:38:05 07:44:08 32° 274° (W) 07:50:12 435.465 / 435.565
RS-15 22 Jan 07:38:13 07:50:32 65° 53° (NE) 08:02:20 29.354- 29.394
STRAND 1 22 Jan 07:45:46 07:48:55 16° 268° (W) 07:52:05 437.568
Oscar 11 22 Jan 07:48:26 07:50:47 14° 92° (E) 07:53:08 145.826/435.025
PRISM 22 Jan 07:56:24 08:00:15 38° 72° (ENE) 08:04:07 437.425
HO-68 22 Jan 08:04:26 08:11:36 74° 289° (WNW) 08:18:43 435.675
GONETS M04 22 Jan 08:10:04 08:17:24 31° 276° (W) 08:24:45
CUBEBUG 2 22 Jan 08:11:49 08:16:12 89° 89° (E) 08:20:43 437.445
CUTE 1.7 + AOD 2 22 Jan 08:17:06 08:20:56 32° 289° (WNW) 08:24:43 437.475
FUNcube-1 22 Jan 08:25:58 08:30:10 42° 98° (E) 08:34:26 145.935
DELFI C3 22 Jan 08:29:53 08:31:31 12° 91° (E) 08:33:06 145.870
UWE-3 22 Jan 08:35:59 08:40:24 79° 283° (WNW) 08:44:54 435.000/436.395/437.385
SO-50 22 Jan 08:38:01 08:41:10 18° 316° (NW) 08:44:20 436.795
HUMSAT D 22 Jan 08:45:52 08:46:55 11° 90° (E) 08:47:57 437.325/437.525
CANX-2 22 Jan 08:48:09 08:50:19 14° 295° (WNW) 08:52:30 2200.000
ZACube-1 22 Jan 08:50:07 08:54:32 89° 94° (E) 08:59:03 437.345
SEEDS 22 Jan 08:54:11 08:57:12 19° 293° (WNW) 09:00:13 437.485
COMPASS 1 22 Jan 08:55:11 08:58:44 27° 290° (WNW) 09:02:15 437.405
UNISAT 6 22 Jan 08:56:46 09:00:55 53° 74° (ENE) 09:05:04 437.425
AAUSAT CUBESAT 2 22 Jan 09:04:21 09:07:54 27° 290° (WNW) 09:11:25 437.432
PCSat 22 Jan 09:06:13 09:11:38 64° 60° (ENE) 09:17:00 145.827
TIGRISAT 22 Jan 09:09:23 09:13:35 69° 76° (ENE) 09:17:50 435.000
Oscar 11 22 Jan 09:22:58 09:27:09 47° 287° (WNW) 09:31:19 145.826/435.025
ANTELSAT 22 Jan 09:25:09 09:29:24 72° 259° (W) 09:33:39 437.575/2403.000
JAS-2 22 Jan 09:28:38 09:33:36 39° 68° (ENE) 09:39:01 435.910
PRISM 22 Jan 09:33:04 09:35:40 16° 267° (W) 09:38:18 437.425
RS-15 22 Jan 09:51:36 10:02:18 38° 255° (WSW) 10:12:39 29.354- 29.394
HO-68 22 Jan 09:54:47 09:58:05 14° 307° (NW) 10:01:24 435.675
QB50P1 22 Jan 09:59:29 10:02:51 24° 69° (ENE) 10:06:14 145.935-145.965
DELFI C3 22 Jan 10:02:43 10:06:33 45° 287° (WNW) 10:10:19 145.870
FUNcube-1 22 Jan 10:03:12 10:06:04 17° 293° (WNW) 10:08:58 145.935
POLYITAN 1 22 Jan 10:04:09 10:07:40 27° 70° (ENE) 10:11:13 437.675
QB50P2 22 Jan 10:05:19 10:08:59 30° 70° (ENE) 10:12:39 145.880/145.840
ESTCUBE 1 22 Jan 10:10:54 10:12:54 13° 91° (E) 10:14:55 437.505/2401.250
HUMSAT D 22 Jan 10:18:37 10:22:51 60° 285° (WNW) 10:27:06 437.325/437.525
POPSAT HIP 1 22 Jan 10:25:53 10:29:53 46° 73° (ENE) 10:33:54 437.405
DUCHIFAT 1 22 Jan 10:33:58 10:37:58 49° 74° (ENE) 10:42:01 145.980
UNISAT 6 22 Jan 10:36:23 10:37:56 12° 269° (W) 10:39:30 437.425
BY70-1 22 Jan 10:38:56 10:42:04 48° 99° (E) 10:44:58 436.1900
NANOSAT C BR1 22 Jan 10:40:31 10:44:39 66° 75° (ENE) 10:48:48 145.865
PCSat 22 Jan 10:51:11 10:54:26 16° 256° (WSW) 10:57:40 145.827
CUBEBUG 1 22 Jan 10:52:52 10:56:08 21° 94° (E) 10:59:23 437.445
BUGSAT 1 22 Jan 11:00:14 11:03:53 33° 71° (ENE) 11:07:31 437.445
JAS-2 22 Jan 11:14:33 11:18:53 25° 268° (W) 11:23:33 435.910
AISAT 22 Jan 11:14:47 11:18:19 23° 95° (E) 11:21:48 437.250
50 SAT 22 Jan 11:22:21 11:24:45 17° 94° (E) 11:27:07 437.505
QB50P1 22 Jan 11:34:59 11:38:30 26° 264° (W) 11:42:02 145.935-145.965
POLYITAN 1 22 Jan 11:40:06 11:43:25 23° 265° (W) 11:46:46 437.675
QB50P2 22 Jan 11:41:37 11:44:47 21° 265° (W) 11:47:58 145.880/145.840
ESTCUBE 1 22 Jan 11:45:35 11:50:02 56° 287° (WNW) 11:54:27 437.505/2401.250
CUSAT 1 22 Jan 11:46:14 11:49:53 14° 58° (ENE) 11:53:24 437.405
VELOX 1 22 Jan 11:47:27 11:51:45 51° 100° (E) 11:56:01 145.980
SPROUT 22 Jan 11:59:52 12:04:03 54° 100° (E) 12:08:13 437.525
POPSAT HIP 1 22 Jan 12:03:52 12:05:53 13° 268° (W) 12:07:55 437.405
AO-7 22 Jan 12:05:42 12:07:31 11° 44° (NE) 12:09:20 29.400- 29.500
UKube-1 22 Jan 12:07:24 12:11:07 28° 97° (E) 12:14:49 .
DUCHIFAT 1 22 Jan 12:12:11 12:13:55 12° 269° (W) 12:15:38 145.980
DX 1 22 Jan 12:12:22 12:16:32 45° 100° (E) 12:20:40 434.975-435.025
Oscar 19 22 Jan 12:15:26 12:20:34 62° 73° (ENE) 12:25:43 437.125/150
AIST 1 22 Jan 12:21:13 12:23:39 15° 86° (E) 12:26:04
Cosmos 2491 22 Jan 12:24:23 12:33:00 56° 78° (ENE) 12:41:35 435.465 / 435.565
CUBEBUG 1 22 Jan 12:28:37 12:32:27 31° 290° (WNW) 12:36:14 437.445
YUBILEINY 22 Jan 12:29:59 12:36:46 26° 81° (E) 12:43:33 435.215
BUGSAT 1 22 Jan 12:36:38 12:39:19 17° 266° (W) 12:42:01 437.445
AO-85 22 Jan 12:38:55 12:43:31 47° 117° (ESE) 12:47:48 145.980
Gurwin Techsat 1B 22 Jan 12:47:09 12:52:24 66° 73° (ENE) 12:57:40 435.225
AISAT 22 Jan 12:50:57 12:54:44 29° 291° (WNW) 12:58:29 437.250
50 SAT 22 Jan 12:54:59 12:57:56 25° 289° (WNW) 13:00:52 437.505
DANDE 22 Jan 12:56:05 13:01:20 18° 64° (ENE) 13:06:43 436.750
ITAMSAT 1 22 Jan 13:04:59 13:08:36 20° 64° (ENE) 13:12:13 435.822/435.867
